Location: *
(49.8044°N, 4.0558°E)
Time: 11:59:53
(UTC+00:00)

STPSAT 2 (USA 217) - Pass Details

Date: 09 April 2020
Orbit: 622 x 646 km, 72.0° (Epoch: 16 May)

Event Time Altitude Azimuth Distance (km) Brightness Sun altitude
Rises 20:26:34 0° 204° (SSW) 2,891 7.9 -17.9°
Reaches altitude 10° 20:28:48 10° 204° (SSW) 1,989 7.0 -18.2°
Maximum altitude 20:33:16 87° 119° (ESE) 632 4.5 -18.8°
Drops below altitude 10° 20:37:48 10° 28° (NNE) 2,011 7.3 -19.3°
Sets 20:40:04 0° 28° (NNE) 2,925 8.2 -19.6°
